STARLINK-5085, 55392

Orbit data source: Space-Track

STARLINK-5085, 55392 is a payload satellite owned by SpaceX/Seattle (US) in LEO that was launched on Tue, 31 Jan 2023 UTC via an FALCON 9 launch vehicle from the Air Force Western Test Range (AFWTR). Payload-class satellites include a variety of spacecraft equipped with specific instruments for various scientific and technological missions. These include communications satellites like Starlink; space stations such as the ISS; scientific satellites like the Hubble; Earth observation satellites from companies like Planet Labs, Umbra, and HawkEye 360; GPS; miniature CubeSats for education and research; and military/defense satellites.

Loading next visibility...
Identifier
55392, 2023-014B
Orbit
LEO
Country
Flag of USUS
Related business
Manufacturer
SpaceX/Seattle
Mission
Operational Commercial Communications
Bus & Motor
STARLINK, Unknown motor
Mass
305 kg wet, ~290 kg dry
Launch date (UTC)
2023-01-31 (3 years ago)
Launch vehicle
FALCON 9
Launch site
Air Force Western Test Range (AFWTR)
Object type
Payload
Rocket body
Debris
Shape & HBR
Box + 1 Pan, 10.1 m
Radar Cross Section
13.562 m², Large (>1 m²)

Expand to show TLE details & history
Last TLE update: 2 days ago

TLE from 2 days ago
0 STARLINK-5085
1 55392U 23014B   26171.31488340 -.00000731  00000-0 -53456-4 0  9992
2 55392  69.9992 145.5912 0003626 261.2035  98.8714 14.98322827187923
Epoch: 2026-06-20T07:33Z
TLE epoch observation values (Epoch: 2026-06-20T07:33:25.925Z)
Latitude
Longitude
123.70191°
Altitude
574.891 km
Speed
7.573 km/s
True Right ascension
09h 42m 21s
True Declination
0° 00' 00"
Sunlit
Object was in daylight at epoch
Visualization orbit readout
Latitude
Unknown
Longitude
Unknown
Altitude
Unknown
Speed
Unknown
Apparent Right ascension
Unknown
Apparent Declination
Unknown
Sunlit
N/A
Visualization observer readout
Local Sidereal Time
21:30:34
Azimuth
Unknown
Elevation
Unknown
Doppler factor
Unknown
Orbital elements
Apogee altitude
572.546 km
Perigee altitude
567.507 km
Semi-major axis
6,948.163 km
Eccentricity
0.00036
Inclination
69.9992°
RAAN
145.5912°
Arg. of periapsis
261.2035°
True anomaly
98.91245°
Mean anomaly
98.8714°
Eccentric anomaly
98.89193°
Mean motion
3.74747 °/min
Orbital period
96.06 mins
BSTAR
-0.000053456
Loading maneuver chart data...
Computing Atmospheric mass density...

Documentation

Showing up to 5 results
|